This is the latest recevied weather packets stored in our database for station/object KF4LQQ-13. If no packets are shown the sender has not sent any weather packets the latest 10 day(s).
| Time | Temp. | Humidity | Pressure | Rain* | Wind** | Luminosity | Snow |
|---|---|---|---|---|---|---|---|
| 1777505180 | 26.11° C | - | 1010.3 hPa | 0 mm | - | - | - |
| 1777504574 | 26.11° C | - | 1010.3 hPa | 0 mm | - | - | - |
| 1777503973 | 26.67° C | - | 1010.3 hPa | 0 mm | - | - | - |
| 1777503373 | 27.22° C | - | 1010.1 hPa | 0 mm | - | - | - |
| 1777502773 | 27.22° C | - | 1010 hPa | 0 mm | - | - | - |
| 1777502173 | 27.22° C | - | 1010.1 hPa | 0 mm | - | - | - |
| 1777501573 | 27.22° C | - | 1010.1 hPa | 0 mm | - | - | - |
| 1777501169 | 27.78° C | - | 1010.5 hPa | 0 mm | - | - | - |
| 1777500974 | 27.22° C | - | 1010.3 hPa | 0 mm | - | - | - |
| 1777500372 | 27.22° C | - | 1010.5 hPa | 0 mm | - | - | - |
| 1777499772 | 27.78° C | - | 1010.4 hPa | 0 mm | - | - | - |
| 1777499172 | 27.78° C | - | 1010.5 hPa | 0 mm | - | - | - |
| 1777498571 | 28.33° C | - | 1010.5 hPa | 0 mm | - | - | - |
| 1777497971 | 28.33° C | - | 1010.7 hPa | 0 mm | - | - | - |
| 1777497371 | 28.33° C | - | 1010.8 hPa | 0 mm | - | - | - |
| 1777496896 | 28.89° C | - | 1011 hPa | 0 mm | - | - | - |
| 1777496769 | 28.89° C | - | 1011 hPa | 0 mm | - | - | - |
| 1777496166 | 28.89° C | - | 1011.1 hPa | 0 mm | - | - | - |
| 1777495565 | 28.89° C | - | 1011.1 hPa | 0 mm | - | - | - |
| 1777494965 | 30° C | - | 1011.1 hPa | 0 mm | - | - | - |
| 1777494662 | 29.44° C | - | 1011.7 hPa | 0 mm | - | - | - |
| 1777494363 | 28.89° C | - | 1011.4 hPa | 0 mm | - | - | - |
| 1777493763 | 29.44° C | - | 1011.7 hPa | 0 mm | - | - | - |
| 1777493163 | 29.44° C | - | 1011.8 hPa | 0 mm | - | - | - |
| 1777492562 | 28.89° C | - | 1011.9 hPa | 0 mm | - | - | - |
* Rain since midnight (hover to see other rain measurements)
** Current wind speed in m/s (hover to see current wind gust speed)